Weather History for Poplar Bluff, MO

Change the Weather History Date:

Friday, May 24, 2013

  Actual Average Record
Temperature  
Mean Temperature 62 °F -  
Max Temperature 73 °F 81 °F 95 °F (1926)
Min Temperature 52 °F 58 °F 35 °F (1925)
Degree Days  
Heating Degree Days 3    
Growing Degree Days 12 (Base 50)    
Moisture  
Dew Point 45 °F    
Average Humidity 58    
Maximum Humidity 90    
Minimum Humidity 29    
Precipitation  
Precipitation 0.00 in - - ()
Sea Level Pressure  
Sea Level Pressure 30.29 in    
Wind  
Wind Speed 7 mph (NE)    
Max Wind Speed 10 mph    
Max Gust Speed 16 mph    
Visibility 10 miles    
Events      
Averages and records for this station are not official NWS values.
T = Trace of Precipitation, MM = Missing Value Source: NWS Daily Summary

Daily Weather History Graph

Daily Weather History Graph

Search for Another Location

Airport:

Trip Planner

Search our weather history database for the weather conditions in past years. The results will help you decide how hot, cold, wet, or windy it might be!

Date:

Astronomy

May. 24, 2013 Rise Set
Actual Time 5:47 AM CDT 8:09 PM CDT
Civil Twilight 5:17 AM CDT 8:39 PM CDT
Nautical Twilight 4:41 AM CDT 9:15 PM CDT
Astronomical Twilight 4:01 AM CDT 9:55 PM CDT
Moon 7:52 PM CDT (5/24) 5:18 AM CDT (5/24)
Length of Visible Light 15h 21m
Length of Day
14h 22m
Full, 100% of the Moon is Illuminated
May 24
Full
May 24
Full
May 31
Last Quarter
Jun 8
New
Jun 16
First Quarter

Hourly Weather History & Observations

Time (CDT) Temp. Dew Point Humidity Pressure Visibility Wind Dir Wind Speed Gust Speed Precip Events Conditions
12:53 AM 60.1 °F 53.1 °F 78% 30.20 in 10.0 mi NNE 6.9 mph - N/A   Clear
1:53 AM 57.9 °F 53.1 °F 84% 30.21 in 10.0 mi NNE 6.9 mph - N/A   Clear
2:53 AM 57.0 °F 52.0 °F 83% 30.22 in 10.0 mi NE 6.9 mph - N/A   Clear
3:53 AM 55.9 °F 50.0 °F 80% 30.24 in 10.0 mi NE 8.1 mph - N/A   Clear
4:53 AM 54.0 °F 46.9 °F 77% 30.26 in 10.0 mi NNE 6.9 mph - N/A   Clear
5:53 AM 52.0 °F 45.0 °F 77% 30.29 in 10.0 mi NNE 6.9 mph - N/A   Clear
6:53 AM 54.0 °F 39.0 °F 57% 30.32 in 10.0 mi NNE 9.2 mph - N/A   Clear
7:53 AM 55.9 °F 42.1 °F 60% 30.35 in 10.0 mi NE 10.4 mph - N/A   Clear
8:53 AM 57.9 °F 43.0 °F 58% 30.37 in 10.0 mi NNE 8.1 mph - N/A   Clear
9:53 AM 61.0 °F 44.1 °F 54% 30.37 in 10.0 mi North 10.4 mph - N/A   Clear
10:53 AM 63.0 °F 45.0 °F 52% 30.36 in 10.0 mi NE 8.1 mph - N/A   Clear
11:53 AM 66.0 °F 43.0 °F 43% 30.37 in 10.0 mi ENE 6.9 mph - N/A   Clear
12:53 PM 66.9 °F 41.0 °F 39% 30.36 in 10.0 mi NNE 5.8 mph - N/A   Clear
1:53 PM 70.0 °F 39.0 °F 32% 30.34 in 10.0 mi East 6.9 mph - N/A   Clear
2:53 PM 71.1 °F 41.0 °F 34% 30.32 in 10.0 mi NE 10.4 mph 16.1 mph N/A   Clear
3:53 PM 72.0 °F 37.9 °F 29% 30.31 in 10.0 mi Variable 4.6 mph - N/A   Clear
4:53 PM 72.0 °F 39.9 °F 31% 30.28 in 10.0 mi NE 10.4 mph - N/A   Clear
5:53 PM 72.0 °F 39.9 °F 31% 30.26 in 10.0 mi ENE 6.9 mph - N/A   Clear
6:53 PM 70.0 °F 37.9 °F 31% 30.24 in 10.0 mi East 8.1 mph - N/A   Clear
7:53 PM 66.9 °F 44.1 °F 44% 30.25 in 10.0 mi Calm Calm - N/A   Clear
8:53 PM 59.0 °F 51.1 °F 75% 30.25 in 10.0 mi Calm Calm - N/A   Clear
9:53 PM 57.9 °F 52.0 °F 81% 30.27 in 10.0 mi Calm Calm - N/A   Clear
10:53 PM 55.9 °F 53.1 °F 90% 30.29 in 10.0 mi Calm Calm - N/A   Clear
11:53 PM 55.9 °F 48.0 °F 75% 30.28 in 10.0 mi Calm Calm - N/A   Clear